| time (UTC) | temp F | wind direction | speed MPH | gust MPH | rain 1hr in | rain 24hr in | rain mn in | humidity % | barometer mb |
| 20260510042516 | 50 | 315 | 1.0 | 2.0 | 0.00 | 0.00 | 0.00 | 85 | 1020.6 |
| 20260510041516 | 50 | 315 | 1.0 | 3.0 | 0.00 | 0.00 | 0.00 | 85 | 1020.7 |
| 20260510040516 | 50 | 338 | 1.0 | 4.0 | 0.00 | 0.00 | 0.00 | 84 | 1020.7 |
| 20260510035537 | 50 | 0 | 1.0 | 3.0 | 0.00 | 0.00 | 0.00 | 84 | 1020.8 |
| 20260510034516 | 50 | 23 | 1.0 | 5.0 | 0.00 | 0.00 | 0.00 | 84 | 1020.8 |
| 20260510033516 | 50 | 45 | 1.0 | 5.0 | 0.00 | 0.00 | 0.00 | 83 | 1020.7 |
| 20260510032516 | 51 | 0 | 2.0 | 5.0 | 0.00 | 0.00 | 0.00 | 83 | 1020.8 |
| 20260510031516 | 51 | 0 | 1.0 | 3.0 | 0.00 | 0.00 | 0.00 | 83 | 1021.0 |
| 20260510030516 | 51 | 23 | 1.0 | 3.0 | 0.00 | 0.00 | 0.00 | 82 | 1021.1 |
| 20260510025516 | 51 | 23 | 1.0 | 4.0 | 0.00 | 0.00 | 0.00 | 81 | 1021.0 |
| 20260510024536 | 51 | 338 | 1.0 | 3.0 | 0.00 | 0.00 | 0.00 | 81 | 1021.0 |
| 20260510023516 | 51 | 0.0 | 1.0 | 0.00 | 0.00 | 0.00 | 80 | 1020.9 | |
| 20260510022516 | 51 | 0.0 | 1.0 | 0.00 | 0.00 | 0.00 | 80 | 1020.8 | |
| 20260510021516 | 52 | 0.0 | 3.0 | 0.00 | 0.00 | 0.00 | 79 | 1021.0 | |
| 20260510020516 | 52 | 0.0 | 1.0 | 0.00 | 0.00 | 0.00 | 79 | 1021.0 | |
| 20260510015517 | 52 | 45 | 1.0 | 4.0 | 0.00 | 0.00 | 0.00 | 79 | 1020.8 |
| 20260510014516 | 52 | 0.0 | 2.0 | 0.00 | 0.00 | 0.00 | 78 | 1020.8 | |
| 20260510013517 | 52 | 0.0 | 1.0 | 0.00 | 0.00 | 0.00 | 77 | 1020.8 | |
| 20260510012517 | 53 | 0 | 1.0 | 3.0 | 0.00 | 0.00 | 0.00 | 77 | 1020.7 |
| 20260510011517 | 53 | 315 | 1.0 | 2.0 | 0.00 | 0.00 | 0.00 | 76 | 1020.8 |
| 20260510010516 | 53 | 0.0 | 2.0 | 0.00 | 0.00 | 0.00 | 76 | 1020.8 | |
| 20260510005536 | 53 | 315 | 1.0 | 2.0 | 0.00 | 0.00 | 0.00 | 75 | 1020.8 |
| 20260510004517 | 53 | 0 | 1.0 | 2.0 | 0.00 | 0.00 | 0.00 | 74 | 1020.7 |
| 20260510003537 | 53 | 293 | 1.0 | 2.0 | 0.00 | 0.00 | 0.00 | 73 | 1020.7 |
| 20260510002516 | 53 | 0.0 | 3.0 | 0.00 | 0.00 | 0.00 | 73 | 1020.7 | |
| 20260510001556 | 53 | 0.0 | 2.0 | 0.00 | 0.00 | 0.00 | 71 | 1020.7 | |
| 20260510000516 | 53 | 0 | 1.0 | 2.0 | 0.00 | 0.00 | 0.00 | 69 | 1020.7 |
| 20260509235517 | 53 | 338 | 1.0 | 2.0 | 0.00 | 0.00 | 0.00 | 68 | 1020.7 |
| 20260509234517 | 53 | 0.0 | 2.0 | 0.00 | 0.00 | 0.00 | 68 | 1020.8 | |
| 20260509233517 | 53 | 0.0 | 2.0 | 0.00 | 0.00 | 0.00 | 68 | 1020.9 | |
| 20260509232516 | 53 | 0.0 | 1.0 | 0.00 | 0.00 | 0.00 | 68 | 1020.9 | |
| 20260509231516 | 53 | 0.0 | 1.0 | 0.00 | 0.00 | 0.00 | 67 | 1020.9 | |
| 20260509230517 | 53 | 0.0 | 2.0 | 0.00 | 0.00 | 0.00 | 67 | 1021.0 | |
| 20260509225516 | 53 | 0.0 | 1.0 | 0.00 | 0.00 | 0.00 | 66 | 1021.0 | |
| 20260509224516 | 53 | 0.0 | 2.0 | 0.00 | 0.00 | 0.00 | 65 | 1020.9 | |
| 20260509223516 | 53 | 0.0 | 2.0 | 0.00 | 0.00 | 0.00 | 65 | 1020.8 | |
| 20260509222516 | 53 | 0 | 1.0 | 4.0 | 0.00 | 0.00 | 0.00 | 64 | 1020.7 |
| 20260509221516 | 53 | 23 | 1.0 | 4.0 | 0.00 | 0.00 | 0.00 | 63 | 1020.9 |
| 20260509220517 | 54 | 0.0 | 2.0 | 0.00 | 0.00 | 0.00 | 62 | 1020.9 | |
| 20260509215516 | 54 | 0.0 | 3.0 | 0.00 | 0.00 | 0.00 | 61 | 1020.9 | |
| 20260509214516 | 54 | 0.0 | 2.0 | 0.00 | 0.00 | 0.00 | 60 | 1020.9 | |
| 20260509213536 | 54 | 0.0 | 1.0 | 0.00 | 0.00 | 0.00 | 59 | 1021.0 | |
| 20260509212516 | 55 | 0.0 | 2.0 | 0.00 | 0.00 | 0.00 | 57 | 1021.0 | |
| 20260509211517 | 55 | 0.0 | 2.0 | 0.00 | 0.00 | 0.00 | 56 | 1020.9 | |
| 20260509210516 | 55 | 0.0 | 1.0 | 0.00 | 0.00 | 0.00 | 55 | 1020.7 | |
| 20260509205516 | 56 | 0.0 | 2.0 | 0.00 | 0.00 | 0.00 | 54 | 1020.6 | |
| 20260509204517 | 56 | 338 | 1.0 | 2.0 | 0.00 | 0.00 | 0.00 | 54 | 1020.6 |
| 20260509203517 | 56 | 315 | 1.0 | 2.0 | 0.00 | 0.00 | 0.00 | 54 | 1020.3 |
| 20260509202516 | 57 | 23 | 1.0 | 2.0 | 0.00 | 0.00 | 0.00 | 53 | 1020.3 |
| 20260509201517 | 57 | 293 | 1.0 | 4.0 | 0.00 | 0.00 | 0.00 | 53 | 1020.1 |
| 20260509200516 | 58 | 248 | 1.0 | 2.0 | 0.00 | 0.00 | 0.00 | 53 | 1020.1 |
| 20260509195516 | 58 | 338 | 1.0 | 2.0 | 0.00 | 0.00 | 0.00 | 52 | 1020.1 |
| 20260509194517 | 59 | 315 | 1.0 | 4.0 | 0.00 | 0.00 | 0.00 | 51 | 1020.2 |
| 20260509193517 | 60 | 315 | 1.0 | 5.0 | 0.00 | 0.00 | 0.00 | 50 | 1020.0 |
| 20260509192517 | 60 | 293 | 1.0 | 4.0 | 0.00 | 0.00 | 0.00 | 51 | 1020.2 |
| 20260509191517 | 61 | 23 | 1.0 | 3.0 | 0.00 | 0.00 | 0.00 | 52 | 1020.0 |
| 20260509190516 | 62 | 0.0 | 2.0 | 0.00 | 0.00 | 0.00 | 52 | 1019.7 | |
| 20260509185516 | 62 | 293 | 1.0 | 3.0 | 0.00 | 0.00 | 0.00 | 52 | 1019.7 |
| 20260509184516 | 63 | 293 | 1.0 | 2.0 | 0.00 | 0.00 | 0.00 | 51 | 1019.7 |
| 20260509183516 | 64 | 315 | 1.0 | 4.0 | 0.00 | 0.00 | 0.00 | 50 | 1019.7 |
| 20260509182516 | 64 | 270 | 2.0 | 4.0 | 0.00 | 0.00 | 0.00 | 48 | 1019.8 |
| 20260509181516 | 65 | 23 | 1.0 | 6.0 | 0.00 | 0.00 | 0.00 | 47 | 1019.6 |
| 20260509180516 | 66 | 315 | 1.0 | 4.0 | 0.00 | 0.00 | 0.00 | 48 | 1019.6 |
| 20260509175516 | 66 | 248 | 1.0 | 2.0 | 0.00 | 0.00 | 0.00 | 49 | 1019.6 |
| 20260509174516 | 67 | 315 | 1.0 | 4.0 | 0.00 | 0.00 | 0.00 | 49 | 1019.7 |
| 20260509173517 | 68 | 293 | 1.0 | 2.0 | 0.00 | 0.00 | 0.00 | 48 | 1019.5 |
| 20260509172516 | 68 | 293 | 2.0 | 5.0 | 0.00 | 0.00 | 0.00 | 46 | 1019.3 |
| 20260509171516 | 69 | 0 | 1.0 | 4.0 | 0.00 | 0.00 | 0.00 | 46 | 1019.3 |
| 20260509170516 | 70 | 338 | 1.0 | 4.0 | 0.00 | 0.00 | 0.00 | 45 | 1019.4 |
| 20260509165516 | 71 | 270 | 1.0 | 5.0 | 0.00 | 0.00 | 0.00 | 44 | 1019.4 |
| 20260509164517 | 72 | 315 | 1.0 | 4.0 | 0.00 | 0.00 | 0.00 | 42 | 1019.3 |
| 20260509163516 | 73 | 338 | 2.0 | 5.0 | 0.00 | 0.00 | 0.00 | 42 | 1019.3 |
| 20260509162517 | 73 | 338 | 1.0 | 4.0 | 0.00 | 0.00 | 0.00 | 43 | 1019.3 |
| 20260509161517 | 73 | 23 | 1.0 | 6.0 | 0.00 | 0.00 | 0.00 | 43 | 1019.2 |
| 20260509160517 | 74 | 270 | 1.0 | 5.0 | 0.00 | 0.00 | 0.00 | 43 | 1019.2 |
| 20260509155517 | 74 | 293 | 1.0 | 5.0 | 0.00 | 0.00 | 0.00 | 43 | 1019.3 |
| 20260509154516 | 75 | 23 | 1.0 | 4.0 | 0.00 | 0.00 | 0.00 | 44 | 1019.4 |
| 20260509153517 | 74 | 248 | 1.0 | 5.0 | 0.00 | 0.00 | 0.00 | 44 | 1019.4 |
| 20260509152516 | 74 | 293 | 1.0 | 4.0 | 0.00 | 0.00 | 0.00 | 47 | 1019.5 |
| 20260509151516 | 74 | 315 | 1.0 | 2.0 | 0.00 | 0.00 | 0.00 | 43 | 1019.6 |
| 20260509150516 | 74 | 270 | 1.0 | 3.0 | 0.00 | 0.00 | 0.00 | 44 | 1019.8 |
| 20260509145517 | 74 | 248 | 1.0 | 4.0 | 0.00 | 0.00 | 0.00 | 45 | 1019.9 |
| 20260509144517 | 74 | 293 | 1.0 | 4.0 | 0.00 | 0.00 | 0.00 | 44 | 1019.9 |
| 20260509143517 | 74 | 270 | 1.0 | 5.0 | 0.00 | 0.00 | 0.00 | 44 | 1019.7 |
| 20260509142536 | 74 | 248 | 1.0 | 4.0 | 0.00 | 0.00 | 0.00 | 44 | 1019.6 |
| 20260509141517 | 74 | 293 | 1.0 | 2.0 | 0.00 | 0.00 | 0.00 | 42 | 1019.6 |
| 20260509140517 | 75 | 293 | 1.0 | 3.0 | 0.00 | 0.00 | 0.00 | 44 | 1019.5 |
| 20260509135517 | 76 | 338 | 1.0 | 4.0 | 0.00 | 0.00 | 0.00 | 42 | 1019.4 |
| 20260509134517 | 76 | 248 | 1.0 | 3.0 | 0.00 | 0.00 | 0.00 | 43 | 1019.4 |
| 20260509133517 | 76 | 270 | 1.0 | 5.0 | 0.00 | 0.00 | 0.00 | 43 | 1019.5 |
| 20260509132517 | 76 | 270 | 1.0 | 4.0 | 0.00 | 0.00 | 0.00 | 44 | 1019.6 |
| 20260509131517 | 76 | 0 | 1.0 | 5.0 | 0.00 | 0.00 | 0.00 | 44 | 1019.7 |
| 20260509130517 | 76 | 315 | 1.0 | 4.0 | 0.00 | 0.00 | 0.00 | 44 | 1019.9 |
| 20260509125517 | 75 | 135 | 1.0 | 2.0 | 0.00 | 0.00 | 0.00 | 44 | 1019.8 |
| 20260509124516 | 75 | 23 | 1.0 | 3.0 | 0.00 | 0.00 | 0.00 | 45 | 1019.9 |
| 20260509123537 | 74 | 338 | 1.0 | 4.0 | 0.00 | 0.00 | 0.00 | 45 | 1020.0 |
| 20260509122517 | 75 | 270 | 1.0 | 4.0 | 0.00 | 0.00 | 0.00 | 45 | 1020.1 |
| 20260509121517 | 74 | 315 | 1.0 | 4.0 | 0.00 | 0.00 | 0.00 | 48 | 1020.3 |
| 20260509120517 | 74 | 270 | 1.0 | 4.0 | 0.00 | 0.00 | 0.00 | 47 | 1020.3 |
| 20260509115557 | 74 | 248 | 1.0 | 4.0 | 0.00 | 0.00 | 0.00 | 47 | 1020.4 |
| 20260509114517 | 73 | 248 | 1.0 | 3.0 | 0.00 | 0.00 | 0.00 | 46 | 1020.6 |
| 20260509113517 | 73 | 293 | 2.0 | 5.0 | 0.00 | 0.00 | 0.00 | 47 | 1020.6 |
| 20260509112537 | 72 | 270 | 1.0 | 4.0 | 0.00 | 0.00 | 0.00 | 52 | 1020.7 |
| 20260509111517 | 72 | 270 | 1.0 | 5.0 | 0.00 | 0.00 | 0.00 | 50 | 1020.8 |
| 20260509110537 | 71 | 270 | 1.0 | 2.0 | 0.00 | 0.00 | 0.00 | 52 | 1020.8 |
| 20260509105517 | 72 | 23 | 1.0 | 4.0 | 0.00 | 0.00 | 0.00 | 51 | 1020.9 |
| 20260509104517 | 72 | 0 | 1.0 | 3.0 | 0.00 | 0.00 | 0.00 | 54 | 1021.1 |
| 20260509103517 | 71 | 293 | 1.0 | 4.0 | 0.00 | 0.00 | 0.00 | 53 | 1021.1 |
| 20260509102537 | 71 | 315 | 1.0 | 6.0 | 0.00 | 0.00 | 0.00 | 53 | 1021.2 |
| 20260509101517 | 71 | 338 | 1.0 | 3.0 | 0.00 | 0.00 | 0.00 | 53 | 1021.3 |
| 20260509100537 | 71 | 225 | 1.0 | 4.0 | 0.00 | 0.00 | 0.00 | 52 | 1021.3 |
| 20260509095517 | 71 | 0 | 1.0 | 3.0 | 0.00 | 0.00 | 0.00 | 56 | 1021.3 |
| 20260509094517 | 71 | 315 | 1.0 | 2.0 | 0.00 | 0.00 | 0.00 | 56 | 1021.4 |
| 20260509093537 | 70 | 338 | 1.0 | 3.0 | 0.00 | 0.00 | 0.00 | 58 | 1021.4 |
| 20260509092517 | 69 | 0.0 | 3.0 | 0.00 | 0.00 | 0.00 | 59 | 1021.5 | |
| 20260509091517 | 68 | 293 | 1.0 | 4.0 | 0.00 | 0.00 | 0.00 | 61 | 1021.6 |
| 20260509090517 | 67 | 0.0 | 2.0 | 0.00 | 0.00 | 0.00 | 64 | 1021.6 | |
| 20260509085517 | 66 | 0.0 | 2.0 | 0.00 | 0.00 | 0.00 | 69 | 1021.7 | |
| 20260509084517 | 64 | 0.0 | 3.0 | 0.00 | 0.00 | 0.00 | 72 | 1021.7 | |
| 20260509083517 | 63 | 0.0 | 4.0 | 0.00 | 0.00 | 0.00 | 74 | 1021.9 | |
| 20260509082517 | 61 | 0.0 | 1.0 | 0.00 | 0.00 | 0.00 | 77 | 1021.9 | |
| 20260509081517 | 60 | 0.0 | 4.0 | 0.00 | 0.00 | 0.00 | 80 | 1021.9 | |
| 20260509080517 | 58 | 0.0 | 2.0 | 0.00 | 0.00 | 0.00 | 83 | 1021.8 | |
| 20260509075517 | 57 | 0.0 | 2.0 | 0.00 | 0.00 | 0.00 | 87 | 1021.9 | |
| 20260509074517 | 56 | 0.0 | 1.0 | 0.00 | 0.00 | 0.00 | 89 | 1021.9 | |
| 20260509073537 | 54 | 0.0 | 2.0 | 0.00 | 0.00 | 0.00 | 91 | 1021.7 | |
| 20260509072517 | 53 | 0.0 | 1.0 | 0.00 | 0.00 | 0.00 | 92 | 1021.8 | |
| 20260509071557 | 52 | 0.0 | 0.0 | 0.00 | 0.00 | 0.00 | 93 | 1021.7 | |
| 20260509070517 | 52 | 0.0 | 1.0 | 0.00 | 0.00 | 0.00 | 94 | 1021.7 | |
| 20260509065517 | 51 | 0.0 | 1.0 | 0.00 | 0.00 | 0.00 | 94 | 1021.7 | |
| 20260509064517 | 50 | 0.0 | 1.0 | 0.00 | 0.00 | 0.00 | 94 | 1021.6 | |
| 20260509063537 | 49 | 0.0 | 1.0 | 0.00 | 0.00 | 0.00 | 95 | 1021.5 | |
| 20260509062517 | 49 | 0.0 | 2.0 | 0.00 | 0.00 | 0.00 | 95 | 1021.5 | |
| 20260509061517 | 48 | 0.0 | 1.0 | 0.00 | 0.00 | 0.00 | 95 | 1021.5 | |
| 20260509060517 | 47 | 0.0 | 1.0 | 0.00 | 0.00 | 0.00 | 96 | 1021.5 | |
| 20260509055517 | 46 | 0.0 | 1.0 | 0.00 | 0.00 | 0.00 | 96 | 1021.5 | |
| 20260509054537 | 44 | 0.0 | 1.0 | 0.00 | 0.00 | 0.00 | 96 | 1021.4 | |
| 20260509053517 | 43 | 0.0 | 0.0 | 0.00 | 0.00 | 0.00 | 95 | 1021.4 | |
| 20260509052517 | 42 | 0.0 | 0.0 | 0.00 | 0.00 | 0.00 | 94 | 1021.4 | |
| 20260509051537 | 42 | 0.0 | 0.0 | 0.00 | 0.00 | 0.00 | 93 | 1021.3 | |
| 20260509050517 | 41 | 0.0 | 0.0 | 0.00 | 0.00 | 0.00 | 93 | 1021.4 | |
| 20260509045517 | 41 | 0.0 | 0.0 | 0.00 | 0.00 | 0.00 | 92 | 1021.4 | |
| 20260509044517 | 41 | 0.0 | 0.0 | 0.00 | 0.00 | 0.00 | 92 | 1021.4 | |
| 20260509043537 | 42 | 0.0 | 0.0 | 0.00 | 0.00 | 0.00 | 92 | 1021.5 |